Location: Asheville, NC
(35.6000°N, 82.5500°W)
Time: 03:03:08
(UTC-04:00)

RS-15 - Pass Details

Date: 04 January 2018
Orbit: 1889 x 2156 km, 64.8° (Epoch: 21 April)

Event Time Altitude Azimuth Distance (km) Brightness Sun altitude
Rises 22:36:07 0° 320° (NW) 5,516 10.8 -61.0°
Reaches altitude 10° 22:40:12 10° 310° (NW) 4,471 10.2 -61.8°
Enters shadow 22:45:14 23° 287° (WNW) 3,483 9.5 -62.8°
